Content
SEND FEEDBACK

Daily
Averages
Monthly
Summary
United States of America

TAMUNING, GUAM


Home > North America > United States > Guam
Elevation: 250 feet     Latitude: 13 29N     Longitude: 144 47E

WEATHER
 
SELECT A DAY
Number of Records: 352,517;   Date Range: 1/1/95 - 10/30/14
 
SHARE

PRINT THIS DATA

[ ← Previous Day ]
WEATHER ALMANAC - MARCH 29, 2014
[ Next Day → ]
[ °C ]   °F
Weather ElementAverageHighLow
Temperature79.5 °F84.2 °F (11:43 am)75.2 °F (9:55 pm)
Dewpoint72.8 °F75.2 °F (5:37 pm)69.8 °F (3:33 am)
Humidity80 %94 % (9:55 pm)70 % (10:18 am)
Barometer29.89 in29.94 in (10:18 am)29.82 in (3:58 pm)
Wind Speed12.6 mph18.4 mph (9:38 pm)
Wind Gust23 mph (9:38 pm)
Weather ElementAverage
Visibility9.8 mi
Wind DirectionENE (53.9 °)

Weather ElementTotal
Precipitation0.11 in
Cooling Degree Days14.7 (Base 65)
Growing Degree Days29.7 (Base 50)
Averaged from 77 records on March 29, 2014
WEATHER CONDITIONS BREAKOUT
WIND DIRECTION BREAKOUT
WEATHER BY HOUR - MARCH 29, 2014
[ °C ]   °F
Local TimeTemperatureDewpointHumidityBarometerVisibilityWind DirectionWind SpeedGust SpeedPrecipitationEventsConditions
1:43 AM77.0 °F71.6 °F83 %29.91 in10.0 miNE (50°)11.5 mphMostly Cloudy
1:48 AM77.0 °F71.6 °F83 %29.90 in10.0 miNE (40°)11.5 mphMostly Cloudy
1:53 AM77.0 °F71.6 °F83 %29.90 in10.0 miNE (40°)10.4 mphMostly Cloudy
1:58 AM77.2 °F71.6 °F83 %29.87 in10.0 miNE (50°)9.2 mphMostly Cloudy
2:03 AM77.0 °F71.6 °F83 %29.90 in10.0 miNE (50°)11.5 mphMostly Cloudy
2:08 AM77.0 °F71.6 °F83 %29.90 in10.0 miNE (50°)10.4 mphMostly Cloudy
2:41 AM77.0 °F71.6 °F83 %29.89 in10.0 miNE (40°)9.2 mphLight Drizzle
2:50 AM77.0 °F71.6 °F83 %29.89 in10.0 miNE (50°)11.5 mphMostly Cloudy
2:55 AM77.0 °F71.6 °F83 %29.90 in10.0 miENE (60°)10.4 mphMostly Cloudy
2:58 AM77.4 °F71.1 °F81 %29.87 in10.0 miENE (60°)10.4 mph0.00 inMostly Cloudy
3:08 AM77.0 °F71.6 °F83 %29.90 in10.0 miNE (50°)9.2 mphMostly Cloudy
3:33 AM77.0 °F69.8 °F78 %29.89 in10.0 miENE (60°)11.5 mphMostly Cloudy
3:58 AM76.1 °F70.7 °F83 %29.86 in10.0 miENE (70°)9.2 mphScattered Clouds
4:58 AM75.7 °F70.9 °F85 %29.87 in10.0 miENE (70°)10.4 mphPartly Cloudy
5:58 AM75.9 °F70.2 °F82 %29.88 in10.0 miENE (60°)10.4 mphPartly Cloudy
6:58 AM76.8 °F70.5 °F81 %29.89 in10.0 miENE (60°)10.4 mphClear
7:58 AM79.5 °F71.1 °F75 %29.91 in10.0 miENE (60°)11.5 mphPartly Cloudy
8:58 AM81.5 °F72.7 °F74 %29.92 in10.0 miENE (70°)11.5 mphScattered Clouds
9:58 AM82.8 °F72.7 °F71 %29.91 in10.0 miENE (60°)12.7 mphPartly Cloudy
10:18 AM82.4 °F71.6 °F70 %29.94 in10.0 miENE (70°)13.8 mphMostly Cloudy
10:23 AM82.4 °F73.4 °F74 %29.94 in10.0 miENE (60°)11.5 mphScattered Clouds
10:38 AM82.4 °F73.4 °F74 %29.93 in10.0 miNE (50°)11.5 mphMostly Cloudy
10:48 AM82.4 °F73.4 °F74 %29.93 in10.0 miNE (50°)13.8 mphMostly Cloudy
10:53 AM82.4 °F73.4 °F74 %29.93 in10.0 miNE (50°)15.0 mphMostly Cloudy
10:58 AM81.5 °F72.5 °F74 %29.91 in10.0 miNE (50°)12.7 mphMostly Cloudy
11:43 AM84.2 °F73.4 °F70 %29.91 in10.0 miEast (80°)12.7 mphScattered Clouds
11:58 AM83.3 °F72.7 °F70 %29.88 in10.0 miENE (70°)12.7 mphPartly Cloudy
12:58 PM83.8 °F73.0 °F70 %29.86 in10.0 miNE (50°)13.8 mphScattered Clouds
1:48 PM82.4 °F73.4 °F74 %29.87 in10.0 miNE (50°)12.7 mphMostly Cloudy
1:58 PM82.8 °F72.9 °F72 %29.84 in10.0 miNE (40°)15.0 mphMostly Cloudy
2:28 PM82.4 °F71.6 °F70 %29.86 in10.0 miENE (60°)12.7 mphMostly Cloudy
2:38 PM82.4 °F73.4 °F74 %29.86 in10.0 miNE (50°)11.5 mphMostly Cloudy
2:58 PM82.2 °F73.0 °F74 %29.83 in10.0 miNE (50°)13.8 mphMostly Cloudy
3:13 PM82.4 °F73.4 °F74 %29.86 in10.0 miNE (40°)12.7 mphMostly Cloudy
3:18 PM82.4 °F73.4 °F74 %29.86 in10.0 miNE (50°)12.7 mphMostly Cloudy
3:23 PM82.4 °F73.4 °F74 %29.86 in10.0 miNE (50°)11.5 mphMostly Cloudy
3:38 PM82.4 °F73.4 °F74 %29.85 in10.0 miNNE (30°)13.8 mphMostly Cloudy
3:43 PM82.4 °F73.4 °F74 %29.85 in10.0 miNE (50°)15.0 mphMostly Cloudy
3:53 PM82.4 °F73.4 °F74 %29.85 in10.0 miNE (40°)12.7 mphMostly Cloudy
3:58 PM82.6 °F72.9 °F72 %29.82 in10.0 miENE (60°)13.8 mphMostly Cloudy
4:03 PM82.4 °F71.6 °F70 %29.85 in10.0 miNNE (30°)12.7 mphMostly Cloudy
4:08 PM82.4 °F71.6 °F70 %29.85 in10.0 miENE (60°)13.8 mphMostly Cloudy
4:33 PM80.6 °F73.4 °F79 %29.85 in10.0 miNE (40°)13.8 mphMostly Cloudy
4:48 PM80.6 °F73.4 °F79 %29.85 in10.0 miNE (50°)13.8 mphMostly Cloudy
4:53 PM80.6 °F73.4 °F79 %29.86 in10.0 miNE (50°)13.8 mphMostly Cloudy
4:58 PM81.5 °F72.9 °F75 %29.83 in10.0 miENE (60°)11.5 mphMostly Cloudy
5:03 PM80.6 °F73.4 °F79 %29.86 in10.0 miNE (50°)12.7 mphScattered Clouds
5:13 PM80.6 °F73.4 °F79 %29.86 in10.0 miNE (50°)12.7 mphMostly Cloudy
5:18 PM80.6 °F73.4 °F79 %29.86 in10.0 miENE (60°)12.7 mphScattered Clouds
5:37 PM80.6 °F75.2 °F84 %29.86 in9.0 miENE (60°)12.7 mphRainLight Rain
5:47 PM78.8 °F75.2 °F89 %29.86 in10.0 miENE (60°)12.7 mphRainLight Rain
5:49 PM78.8 °F73.4 °F83 %29.86 in10.0 miNE (50°)12.7 mphScattered Clouds
5:58 PM78.6 °F73.9 °F85 %29.84 in10.0 miNE (50°)12.7 mph0.00 inScattered Clouds
6:33 PM78.8 °F73.4 °F83 %29.88 in10.0 miENE (60°)11.5 mphMostly Cloudy
6:38 PM78.8 °F73.4 °F83 %29.88 in10.0 miNE (50°)12.7 mphScattered Clouds
6:58 PM79.0 °F72.5 °F80 %29.86 in10.0 miNE (50°)12.7 mphScattered Clouds
7:38 PM78.8 °F73.4 °F83 %29.90 in10.0 miENE (60°)12.7 mphMostly Cloudy
7:43 PM78.8 °F73.4 °F83 %29.90 in10.0 miNE (50°)11.5 mphMostly Cloudy
7:58 PM79.3 °F72.5 °F79 %29.88 in10.0 miNE (50°)11.5 mphOvercast
8:23 PM78.8 °F73.4 °F83 %29.91 in10.0 miENE (60°)11.5 mphMostly Cloudy
8:33 PM78.8 °F73.4 °F83 %29.91 in10.0 miNE (50°)12.7 mphOvercast
8:38 PM78.8 °F73.4 °F83 %29.91 in10.0 miNE (50°)13.8 mphOvercast
8:53 PM78.8 °F73.4 °F83 %29.92 in10.0 miNE (50°)12.7 mphOvercast
8:58 PM79.3 °F73.2 °F81 %29.89 in10.0 miENE (60°)12.7 mphMostly Cloudy
9:08 PM78.8 °F73.4 °F83 %29.92 in10.0 miNE (50°)10.4 mphMostly Cloudy
9:23 PM78.8 °F73.4 °F83 %29.92 in10.0 miNE (50°)13.8 mphMostly Cloudy
9:28 PM78.8 °F73.4 °F83 %29.92 in10.0 miENE (60°)12.7 mphMostly Cloudy
9:38 PM78.8 °F73.4 °F83 %29.93 in10.0 miENE (70°)18.4 mph23.0 mphMostly Cloudy
9:40 PM78.8 °F73.4 °F83 %29.93 in9.0 miENE (70°)17.3 mph23.0 mphRainLight Rain
9:55 PM75.2 °F73.4 °F94 %29.93 in7.0 miENE (70°)15.0 mphRainLight Rain
9:56 PM75.2 °F73.4 °F94 %29.93 in8.0 miENE (70°)15.0 mphOvercast
9:58 PM75.2 °F73.4 °F94 %29.91 in8.0 miENE (60°)15.0 mph0.10 inOvercast
10:01 PM75.2 °F73.4 °F94 %29.93 in9.0 miENE (60°)16.1 mphRainLight Rain
10:06 PM75.2 °F73.4 °F94 %29.93 in7.0 miNE (50°)15.0 mphRainLight Rain
10:14 PM77.0 °F73.4 °F89 %29.93 in10.0 miNE (40°)13.8 mphMostly Cloudy
10:58 PM77.2 °F74.1 °F90 %29.91 in10.0 miNE (50°)13.8 mph0.01 inMostly Cloudy
11:58 PM76.1 °F72.9 °F90 %29.89 in10.0 miNE (40°)9.2 mphPartly Cloudy
Hourly data recorded from PGUA, located miles away from Tamuning, Guam







STORIES FROM OUR PARTNERS